FW3092 Weather Reports


Display with metric or nautical units.
time (UTC)temp
F
wind
direction
speed
MPH
gust
MPH
rain 1hr
in
rain 24hr
in
rain mn
in
humidity
%
barometer
mb
20260506044535 50 66 1.0 3.0 0.00 0.11 0.00 88 952.4
20260506043031 50 66 1.0 5.0 0.00 0.11 0.00 87 952.5
20260506041545 50 69 2.0 4.0 0.00 0.11 0.00 87 952.4
20260506040027 50 64 2.0 5.0 0.00 0.11 0.00 87 952.3
20260506034524 50 65 1.0 5.0 0.00 0.11 0.11 87 952.6
20260506033028 51 46 0.0 5.0 0.00 0.11 0.11 87 952.9
20260506031525 51 26 0.0 4.0 0.00 0.11 0.11 87 952.5
20260506030024 52 22 0.0 5.0 0.00 0.11 0.11 87 952.8
20260506024516 52 29 1.0 8.0 0.00 0.11 0.11 87 952.8
20260506023015 53 317 1.0 5.0 0.00 0.11 0.11 86 952.8
20260506021512 53 348 1.0 5.0 0.00 0.11 0.11 86 952.9
20260506020014 54 341 1.0 5.0 0.00 0.11 0.11 86 952.8
20260506014511 55 43 1.0 9.0 0.00 0.11 0.11 87 952.4
20260506013002 56 308 1.0 10.0 0.00 0.11 0.11 87 952.2
20260506011604 58 256 3.0 11.0 0.00 0.11 0.11 87 952.0
20260506004600 59 320 2.0 9.0 0.00 0.11 0.11 86 951.7
20260506003056 59 280 3.0 8.0 0.00 0.11 0.11 86 951.6
20260506001614 60 281 2.0 9.0 0.00 0.11 0.11 85 951.2
20260506000054 60 244 6.0 10.0 0.00 0.11 0.11 85 951.0
20260505234556 61 229 2.0 7.0 0.00 0.11 0.11 85 950.9
20260505233058 61 215 4.0 9.0 0.00 0.11 0.11 84 950.9
20260505231556 61 240 4.0 9.0 0.00 0.11 0.11 84 950.7
20260505230105 61 229 4.0 9.0 0.00 0.11 0.11 84 950.6
20260505224553 62 242 8.0 14.0 0.00 0.11 0.11 83 950.9
20260505223150 62 236 7.0 14.0 0.00 0.11 0.11 82 950.9
20260505221553 63 240 4.0 8.0 0.00 0.11 0.11 81 950.5
20260505220051 64 274 5.0 12.0 0.00 0.11 0.11 80 950.2
20260505214600 64 234 4.0 12.0 0.00 0.11 0.11 79 950.1
20260505213056 64 226 6.0 9.0 0.00 0.11 0.11 81 950.0
20260505211547 61 223 5.0 8.0 0.01 0.11 0.11 84 949.8
20260505210052 60 208 3.0 7.0 0.01 0.11 0.11 87 949.9
20260505204547 59 238 2.0 5.0 0.03 0.11 0.11 87 950.0
20260505203048 59 281 3.0 7.0 0.05 0.11 0.11 87 950.3
20260505201551 59 279 6.0 13.0 0.04 0.10 0.10 87 950.6
20260505200043 59 292 10.0 23.0 0.04 0.10 0.10 85 951.0
20260505194542 64 290 15.0 27.0 0.02 0.08 0.08 76 951.0
20260505193047 71 222 15.0 22.0 0.00 0.06 0.06 48 949.3
20260505191549 72 247 12.0 24.0 0.01 0.06 0.06 48 948.8
20260505190044 72 238 17.0 24.0 0.01 0.06 0.06 49 948.8
20260505184540 72 200 11.0 27.0 0.01 0.06 0.06 55 948.8
20260505183047 72 192 13.0 26.0 0.06 0.06 0.06 55 949.0
20260505181534 71 205 13.0 26.0 0.05 0.05 0.05 59 949.3
20260505180040 67 221 11.0 19.0 0.05 0.05 0.05 68 949.5
20260505174538 67 239 10.0 20.0 0.05 0.05 0.05 71 950.0
20260505173038 71 215 9.0 19.0 0.00 0.00 0.00 57 949.8
20260505171536 72 227 13.0 25.0 0.00 0.00 0.00 52 949.7
20260505170030 73 216 11.0 23.0 0.00 0.00 0.00 52 949.6
20260505164535 73 171 9.0 20.0 0.00 0.00 0.00 52 949.4
20260505163027 73 221 12.0 22.0 0.00 0.00 0.00 51 949.6
20260505161525 73 220 12.0 25.0 0.00 0.00 0.00 51 950.0
20260505153026 72 233 17.0 27.0 0.00 0.00 0.00 51 950.0
20260505151515 71 205 11.0 27.0 0.00 0.00 0.00 54 949.9
20260505140127 68 207 12.0 23.0 0.00 0.00 0.00 60 950.1
20260505124542 61 188 8.0 16.0 0.00 0.00 0.00 71 950.9
20260505123100 60 213 8.0 13.0 0.00 0.00 0.00 71 951.0
20260505121536 60 197 7.0 12.0 0.00 0.00 0.00 71 950.9
20260505120046 60 201 7.0 13.0 0.00 0.00 0.00 71 950.8
20260505114544 60 210 8.0 17.0 0.00 0.00 0.00 71 950.7
20260505113028 59 207 9.0 20.0 0.00 0.00 0.00 69 950.8
20260505111530 59 191 7.0 13.0 0.00 0.00 0.00 70 951.0
20260505101520 59 206 9.0 15.0 0.00 0.00 0.00 68 950.5
20260505100028 58 223 7.0 12.0 0.00 0.00 0.00 68 950.3
20260505094519 59 213 7.0 14.0 0.00 0.00 0.00 67 950.0
20260505093016 59 214 9.0 14.0 0.00 0.00 0.00 67 949.9
20260505091518 59 211 8.0 14.0 0.00 0.00 0.00 67 949.8
20260505090017 59 207 8.0 13.0 0.00 0.00 0.00 67 949.7
20260505084515 59 199 8.0 13.0 0.00 0.00 0.00 66 949.7
20260505083013 59 202 8.0 13.0 0.00 0.00 0.00 65 949.6
20260505081509 59 185 8.0 14.0 0.00 0.00 0.00 65 949.8
20260505080008 59 192 7.0 14.0 0.00 0.00 0.00 65 949.8
20260505074508 59 203 8.0 13.0 0.00 0.00 0.00 65 949.9
20260505073011 59 193 7.0 11.0 0.00 0.00 0.00 64 950.0
20260505071506 59 202 8.0 13.0 0.00 0.00 0.00 63 950.0
20260505070005 59 202 8.0 13.0 0.00 0.00 0.00 64 950.0
20260505064504 58 209 8.0 15.0 0.00 0.00 0.00 64 950.0
20260505063005 58 217 8.0 13.0 0.00 0.00 0.00 64 950.0
20260505061604 58 202 7.0 15.0 0.00 0.00 0.00 64 949.9
20260505060059 57 193 6.0 12.0 0.00 0.00 0.00 64 950.0